Theta_e
351 352 352 352 352 353 354 354 354 354 355 354 355 355 355 354 356 356 356 356 356 356 356 355 354 352 353 352 352 351 352 352 352 352 353 355 356 359 361 360 360 360 359 359 358 358 358 358 357 357 358 358 358 357 356 356 356 356 356 356 357 356 356 356 357 356 357 357 358 358 358 358 357 357 357 357 357 355 355 355 354 353 352 352 352
351 351 352 352 352 352 353 353 354 354 354 353 354 354 354 354 354 354 354 354 354 355 358 356 353 351 352 353 351 351 352 352 352 352 353 354 355 357 362 361 361 360 360 359 358 358 358 358 358 358 358 358 358 357 357 357 356 356 356 357 357 356 357 356 356 356 356 357 357 358 358 358 358 357 357 357 356 356 356 355 354 354 353 352 352
352 351 352 352 352 352 352 354 354 354 354 352 353 356 354 353 353 353 353 353 353 353 355 354 352 349 351 352 352 352 352 353 353 352 352 353 354 355 357 363 361 360 360 359 358 358 358 358 358 358 357 357 357 357 357 357 357 357 357 357 357 357 357 356 357 357 357 357 357 358 358 358 358 357 357 357 357 356 356 356 355 354 353 353 353
353 353 353 352 352 352 352 353 353 353 355 354 353 354 356 354 355 356 357 357 355 354 354 349 346 346 349 351 351 351 351 353 352 353 353 353 353 354 355 357 361 362 360 360 359 359 359 359 359 358 358 358 358 358 358 358 358 358 358 358 357 358 358 357 357 357 357 358 359 359 358 358 357 357 357 358 357 357 357 355 355 356 355 353 353
354 356 361 351 352 353 354 356 354 353 353 355 355 356 357 358 356 359 358 357 355 353 353 344 344 345 348 350 351 350 351 353 353 353 352 353 353 353 354 356 358 360 361 361 360 360 360 359 359 359 359 359 359 359 359 359 359 359 359 358 359 358 358 359 359 359 358 358 358 358 357 357 357 357 357 358 358 357 357 356 356 355 355 354 354
354 354 355 351 352 352 353 353 354 357 357 357 356 357 358 355 360 357 361 358 355 351 353 348 344 345 347 349 350 351 351 351 352 353 353 352 353 353 354 355 356 357 358 360 361 361 361 361 361 360 360 360 360 360 360 360 360 359 359 359 359 359 359 359 358 359 358 358 358 358 358 358 358 358 358 357 357 356 356 356 356 355 355 355 355
355 354 353 352 351 351 352 353 356 361 359 359 360 357 356 357 361 360 358 355 357 357 352 347 345 344 346 349 349 349 351 351 352 352 352 353 353 353 354 354 355 356 357 357 359 360 361 362 362 362 361 362 361 361 361 361 361 361 360 360 359 360 360 360 360 359 359 359 359 359 359 359 359 359 358 358 357 357 356 356 356 356 357 356 356
356 354 353 351 351 351 352 356 360 360 360 358 361 357 356 358 360 360 358 356 358 355 355 350 346 344 345 348 349 352 350 351 351 351 351 353 353 353 353 354 355 355 358 358 358 358 359 360 361 362 362 363 363 363 363 363 362 362 362 362 361 361 360 361 360 361 360 360 360 360 360 360 359 359 359 358 358 359 359 358 359 359 358 358 358
356 355 353 352 351 352 354 358 363 360 359 357 356 359 356 357 359 360 359 357 354 355 353 353 352 349 347 345 346 350 350 351 350 350 351 351 352 351 352 353 354 358 359 358 359 358 357 357 359 361 362 363 363 364 364 364 364 364 364 364 363 363 363 362 362 363 363 362 361 361 361 360 360 360 360 360 360 360 360 360 360 359 359 359 359
356 355 353 354 353 355 357 360 361 359 357 356 357 358 358 358 360 359 360 358 356 357 356 353 352 350 350 347 349 348 349 350 350 355 353 351 352 351 352 352 352 352 353 355 356 358 357 357 357 357 358 358 360 362 363 365 365 365 365 365 365 365 364 364 364 364 364 364 363 363 363 363 362 362 361 361 361 361 361 361 361 361 361 361 361
357 357 354 360 356 357 359 361 360 357 357 355 354 358 360 356 359 362 359 358 360 359 358 356 354 351 349 350 351 351 352 350 352 352 353 351 351 353 351 352 352 352 352 353 354 356 356 356 355 355 354 354 356 358 360 362 363 365 366 366 366 367 367 366 365 364 364 365 365 365 365 365 364 363 362 362 362 362 362 362 362 362 362 362 362
359 357 357 360 356 358 360 359 359 357 355 354 353 356 358 358 358 362 358 356 357 356 355 352 349 347 353 354 351 352 352 354 352 350 352 352 352 354 353 354 354 353 352 353 354 354 356 356 357 356 355 354 355 357 359 360 361 362 364 366 367 366 367 368 367 367 367 366 366 366 365 365 365 364 363 363 363 363 363 362 362 362 362 362 362
361 358 357 363 358 359 360 359 358 357 356 354 355 358 363 360 359 358 358 354 354 355 355 347 345 346 345 344 347 348 351 358 351 350 349 351 352 352 354 354 355 355 356 355 355 355 356 357 356 356 355 355 355 355 356 357 357 359 360 361 365 369 370 370 369 368 368 368 367 365 364 363 364 365 365 364 364 364 363 363 363 362 362 361 360
363 360 360 359 357 359 359 358 358 356 356 359 363 365 357 357 356 356 354 355 353 354 356 347 344 340 341 342 344 343 348 353 351 351 351 351 351 351 352 351 352 353 355 357 357 356 357 358 358 358 358 357 357 357 357 356 356 355 357 359 361 363 365 367 370 371 370 369 368 365 365 364 365 365 365 365 364 364 363 362 362 362 362 360 360
363 363 359 358 358 358 358 357 356 361 358 354 355 353 355 355 356 355 354 353 354 358 358 348 346 345 344 342 336 336 344 343 345 346 348 350 351 349 350 349 350 353 355 356 356 357 357 358 359 359 359 359 358 358 357 356 357 358 359 360 361 363 365 366 367 367 369 370 368 367 366 365 366 366 365 364 364 364 363 362 362 362 361 361 361
363 363 360 359 358 358 358 358 357 359 355 354 354 355 355 357 357 361 354 350 349 351 361 351 351 349 342 338 335 334 334 338 340 345 344 345 347 348 349 349 350 351 354 352 352 355 357 358 358 359 360 360 360 359 358 357 357 360 361 362 363 363 363 365 367 368 369 370 368 367 367 366 365 364 365 364 364 364 363 362 361 361 361 361 361
363 363 362 359 359 358 358 358 357 357 355 354 355 356 357 358 359 359 356 352 350 351 354 361 354 351 350 345 339 335 334 337 337 343 341 345 345 344 347 349 348 350 352 351 352 353 352 353 357 358 359 359 359 359 359 359 358 360 361 360 361 360 360 362 364 367 368 370 370 369 367 366 365 364 365 365 364 363 362 361 361 361 361 361 361
362 362 363 361 359 358 358 358 358 359 360 357 357 357 356 358 358 358 357 354 355 350 350 357 356 360 352 348 349 340 342 342 338 337 344 346 344 347 349 345 345 347 352 350 348 349 353 352 354 356 356 358 358 359 359 359 361 361 362 361 362 363 362 361 363 366 368 370 371 370 369 366 365 365 364 363 363 363 363 361 361 361 361 361 361
362 362 362 364 360 359 358 358 359 359 365 359 358 357 357 357 359 358 358 360 355 353 349 349 352 355 358 359 354 354 347 345 339 339 336 342 342 342 342 343 341 341 343 345 346 347 350 351 351 351 354 356 357 357 359 358 359 361 362 363 363 362 361 360 361 365 368 370 371 369 369 368 366 364 363 362 362 363 362 362 362 362 362 361 361
361 360 361 364 362 360 359 359 359 359 363 362 359 358 359 358 361 360 357 361 357 355 350 351 350 350 357 354 355 356 349 347 344 340 337 334 338 341 342 343 342 340 342 342 343 345 346 350 350 350 353 354 356 356 357 357 358 358 357 357 360 360 360 360 361 364 367 370 371 370 369 367 365 363 362 363 363 363 363 362 362 362 362 361 361
360 360 360 362 366 362 360 359 359 359 365 363 361 360 359 358 357 359 360 358 357 356 356 352 351 350 352 353 350 348 345 346 346 348 344 335 335 335 338 343 344 343 341 340 340 344 346 348 350 350 354 356 356 356 355 356 357 358 357 357 359 360 361 359 359 365 366 368 371 369 368 367 365 365 364 364 364 363 363 363 362 362 362 362 359
359 359 359 361 364 364 361 360 360 360 364 363 362 361 360 359 359 359 360 359 358 358 357 355 353 355 353 354 351 351 348 347 345 343 339 338 337 335 337 337 341 346 347 347 349 346 343 344 346 347 350 354 354 355 356 356 358 355 356 357 359 360 360 359 358 362 364 365 365 367 367 364 365 365 365 364 363 363 362 362 361 362 362 360 358
359 359 359 360 361 365 362 361 361 364 365 364 363 362 360 360 360 361 362 360 357 357 361 361 358 357 356 356 355 351 349 347 347 346 340 340 338 336 337 339 341 341 348 349 358 352 349 345 342 342 350 352 355 355 356 356 357 356 357 358 358 359 359 360 360 360 357 357 360 364 364 365 364 364 364 363 362 362 362 361 361 361 361 359 356
357 358 358 360 361 363 365 363 363 362 361 363 363 362 361 361 361 361 360 359 360 361 358 357 356 355 354 356 355 354 353 351 350 351 346 344 339 338 338 342 346 343 345 353 353 349 348 345 346 346 348 352 356 357 359 361 360 358 360 359 357 358 359 360 361 360 357 355 354 355 355 357 358 360 361 361 362 362 362 361 361 361 360 359 355
355 355 357 359 361 361 362 362 362 363 363 361 361 361 361 361 360 359 359 360 360 360 358 356 357 357 356 357 355 353 353 353 351 350 347 344 341 340 342 341 344 344 349 348 352 351 346 347 349 348 348 353 354 362 359 361 363 361 361 360 356 356 356 356 357 355 354 352 352 353 353 355 357 358 358 359 360 361 361 361 361 361 360 359 356
354 355 358 359 361 362 363 362 363 363 364 362 361 361 361 360 360 359 359 360 360 360 360 359 360 360 359 358 357 356 355 354 354 351 347 343 344 340 344 344 342 343 345 350 350 348 354 353 350 355 355 356 360 360 363 362 364 362 361 362 359 353 354 353 355 354 353 351 352 353 353 355 358 359 359 358 359 361 361 360 361 361 360 358 357
355 357 360 360 361 362 362 362 362 361 363 363 364 362 362 361 362 360 361 360 360 361 361 360 360 360 359 358 358 358 357 358 356 355 351 349 347 346 346 343 343 338 342 345 346 347 346 353 351 356 360 365 363 365 368 367 364 362 363 367 365 354 351 350 351 352 352 352 352 352 352 353 356 359 359 359 358 361 362 362 360 360 359 357 354
356 358 359 361 360 361 362 362 362 361 361 362 362 362 361 360 359 361 360 363 361 361 361 360 360 361 360 359 358 357 358 356 357 358 355 353 350 349 350 347 344 340 340 341 341 349 348 353 357 356 360 362 364 366 367 364 365 360 364 367 366 362 353 350 350 349 349 348 348 348 349 351 353 354 356 357 357 357 359 360 360 359 357 355 353
355 358 358 360 361 361 361 361 361 361 361 362 361 362 361 361 359 359 360 360 363 361 360 360 361 360 360 359 360 359 359 360 360 360 360 358 354 352 353 354 348 345 340 340 342 345 353 351 349 362 358 362 362 365 366 367 363 363 365 366 365 367 355 347 347 346 346 346 347 348 349 351 351 352 355 356 356 356 358 359 360 359 358 355 353
356 357 359 359 360 364 361 361 361 361 362 362 362 361 361 359 358 359 360 361 360 362 362 361 362 361 362 361 359 358 359 359 360 360 362 361 358 355 354 351 352 349 345 343 344 343 348 352 350 354 363 360 361 363 364 366 359 361 365 365 364 365 349 347 348 348 347 346 346 345 347 349 351 351 350 349 349 351 354 357 359 358 358 357 355
358 358 358 358 358 359 361 360 360 361 362 362 363 361 360 359 358 358 359 361 361 361 361 362 361 362 361 360 359 358 359 359 359 358 361 363 360 358 357 353 350 354 348 347 344 351 347 352 355 355 355 359 359 360 361 365 362 360 363 364 365 356 351 357 350 348 347 345 344 344 343 344 345 344 342 343 344 346 350 353 356 356 357 357 355
356 356 357 357 358 357 358 359 359 360 361 362 362 362 361 360 360 359 359 359 359 360 360 360 360 361 360 359 359 359 359 358 359 357 358 361 362 361 359 356 352 351 351 349 347 347 352 351 354 355 355 358 362 360 363 363 361 357 363 363 365 357 363 363 354 349 346 344 344 342 341 340 339 339 341 343 344 347 350 351 352 353 353 353 352
355 354 355 357 358 358 357 359 358 360 361 361 362 362 361 360 360 360 360 360 359 359 360 359 358 358 359 357 358 358 358 357 358 357 356 357 359 359 359 358 355 352 352 350 348 349 353 353 352 354 357 357 357 362 360 360 361 363 358 363 364 363 363 364 364 353 348 345 343 341 341 340 338 336 338 341 342 345 348 351 351 350 350 349 348
355 354 354 355 357 358 357 358 359 359 360 361 361 361 360 359 359 358 359 359 359 359 358 358 358 357 358 356 356 356 357 356 356 356 357 355 354 354 355 356 356 356 355 353 350 350 349 354 354 356 355 357 356 361 359 358 359 363 360 362 362 362 362 364 365 363 350 345 341 339 339 339 338 337 338 339 341 342 343 344 344 343 343 343 341
355 355 354 354 355 357 358 358 358 358 360 360 361 360 360 359 359 359 359 359 358 357 357 357 357 357 356 356 356 356 355 355 356 355 356 356 355 354 354 354 354 354 355 355 353 349 350 351 353 352 356 359 357 357 360 358 361 360 359 361 359 359 361 362 362 360 350 344 341 339 338 338 338 337 336 335 337 337 337 337 335 335 337 336 334
352 354 355 354 354 356 357 358 357 358 358 359 360 360 360 359 359 359 359 359 358 358 357 357 357 357 356 356 355 355 355 354 355 355 355 354 355 356 354 355 354 354 354 354 355 353 351 349 353 352 355 354 356 357 357 358 357 359 360 361 360 359 360 360 360 358 351 343 341 340 339 338 337 337 335 334 333 330 330 331 330 331 331 331 331
352 352 354 354 354 354 354 356 357 357 357 358 358 358 359 360 359 359 359 359 358 358 358 358 359 358 356 355 356 356 356 354 354 354 355 355 355 354 354 355 354 354 354 354 354 353 352 350 351 352 352 353 355 356 357 355 358 359 359 359 358 360 361 359 356 353 346 342 343 342 340 339 339 338 336 334 332 330 329 329 328 328 328 327 327
351 351 351 352 353 353 354 355 357 358 358 357 358 358 358 358 359 359 359 359 358 358 357 356 356 357 356 356 355 356 354 353 354 354 356 355 355 352 353 353 354 353 353 352 352 352 351 350 350 350 353 351 353 354 356 358 355 355 354 357 360 360 359 355 353 353 354 354 355 355 346 346 345 339 337 336 333 329 329 328 329 328 326 324 321
350 349 349 350 352 352 353 354 354 355 356 356 356 357 357 358 358 358 357 357 357 357 357 356 356 355 354 354 355 355 355 355 354 354 355 355 353 353 354 354 353 352 351 351 350 349 349 349 349 350 349 352 351 350 355 357 356 355 353 353 351 354 356 355 352 355 355 354 352 346 347 347 344 346 339 333 331 329 328 329 328 327 327 324 321
349 349 348 348 348 351 351 352 354 355 355 355 356 356 356 356 356 355 356 356 355 356 356 356 355 355 355 354 353 354 355 356 355 355 355 354 355 353 354 354 353 351 349 349 349 348 347 346 346 347 350 350 351 351 352 352 350 350 354 353 348 347 350 356 356 353 355 356 354 354 350 349 349 346 336 333 332 331 330 330 333 334 333 329 326
348 349 349 348 348 347 349 350 351 353 353 353 354 354 354 355 355 354 354 354 354 354 354 354 355 355 354 354 354 354 356 359 357 356 357 357 354 353 354 354 353 351 351 349 349 348 347 346 346 347 345 345 346 346 344 346 345 344 350 351 351 351 352 351 354 357 355 353 354 353 354 355 355 357 359 360 360 349 347 339 340 341 337 330 328
347 348 347 347 346 346 346 348 349 349 350 352 353 346 349 355 354 353 354 354 354 354 354 354 353 353 353 353 354 359 360 362 361 355 349 350 355 355 355 356 354 353 351 350 349 348 347 345 344 344 342 342 343 345 345 346 347 350 349 350 348 350 352 351 353 355 357 355 352 351 354 355 353 357 359 355 355 357 356 357 355 348 342 335 331
346 347 348 347 348 346 344 344 345 346 347 348 343 336 336 340 354 355 353 354 354 354 353 353 353 353 353 353 354 355 359 361 362 358 353 348 348 348 350 354 358 355 352 350 348 349 347 345 346 345 343 342 344 346 346 345 347 347 348 350 349 350 348 346 341 349 359 355 354 352 351 358 358 355 355 355 354 355 354 355 343 339 334 332 331
349 349 349 348 348 349 347 345 343 344 346 345 334 332 333 332 340 354 354 353 352 352 352 352 352 352 352 352 352 352 354 355 356 358 356 353 347 346 344 345 346 348 352 354 352 351 349 347 345 345 345 343 344 346 345 345 345 348 350 350 350 349 348 347 346 344 354 358 351 351 350 357 358 353 353 354 354 355 353 344 337 335 333 331 331
351 351 350 350 350 351 351 349 345 344 345 339 332 330 330 330 330 341 351 353 352 351 352 352 352 352 353 353 352 352 352 357 359 358 358 357 350 345 343 343 344 342 337 336 342 353 353 351 348 346 346 346 344 345 348 350 352 348 348 349 350 350 350 348 348 348 350 359 354 350 347 352 356 352 351 354 354 355 353 342 337 335 333 331 330
351 351 351 352 352 352 353 353 353 352 350 345 332 328 327 327 328 333 345 348 350 351 352 352 351 352 352 352 353 352 353 354 356 356 356 356 356 355 355 354 353 352 347 340 337 337 344 350 350 347 349 351 345 346 350 352 348 346 346 346 347 347 348 347 350 351 353 354 349 348 346 350 354 352 351 354 356 357 359 347 336 332 331 330 329
349 351 352 352 352 353 353 354 353 352 352 339 328 326 324 323 325 331 343 344 346 348 350 352 353 353 353 353 353 352 353 354 355 354 354 353 353 352 351 350 350 351 350 349 348 348 348 346 347 349 349 351 350 349 350 351 350 350 350 349 351 350 350 352 351 352 351 355 352 350 345 351 354 351 352 355 355 357 359 343 336 332 330 328 327
350 350 353 353 353 353 354 354 353 353 353 334 328 328 325 323 324 337 342 344 345 346 347 350 351 354 354 354 354 354 354 354 353 343 349 355 353 352 350 351 351 350 349 351 338 340 349 350 350 348 348 349 340 350 350 350 351 354 353 351 350 350 347 344 342 343 343 352 354 352 348 349 355 349 350 354 355 355 358 357 341 335 330 328 326
349 352 352 353 355 354 353 353 352 352 353 340 326 321 319 320 329 340 341 343 344 344 345 347 349 350 350 352 353 352 352 353 347 332 329 341 347 347 347 346 347 346 347 349 339 330 327 325 326 329 329 329 328 326 325 325 338 344 348 344 343 344 343 340 342 343 345 351 351 352 349 346 352 352 350 353 354 353 353 355 357 339 328 324 321
346 348 351 353 354 354 355 354 354 353 354 347 327 321 319 317 327 341 340 340 341 342 342 343 344 345 346 348 351 354 352 352 335 324 324 339 344 344 344 343 342 343 345 347 348 347 334 328 325 324 324 325 326 325 326 325 325 333 341 340 344 346 343 342 340 343 347 351 352 353 349 347 351 353 349 352 351 352 351 355 356 350 330 324 320
346 347 349 349 351 351 353 353 355 355 355 349 323 320 320 319 331 343 345 345 344 345 345 345 347 347 348 348 348 349 347 340 318 319 319 333 341 342 343 342 341 342 344 347 347 346 348 347 349 350 348 340 342 342 343 332 330 339 341 342 345 344 342 343 344 346 344 348 356 356 348 350 349 351 349 347 346 353 355 353 350 351 350 347 344
Wind_Speed
4 3 3 4 4 4 4 3 3 3 3 3 3 3 3 3 3 3 3 3 3 3 3 2 2 2 2 2 3 2 2 2 2 2 2 2 3 4 6 6 6 7 7 6 6 6 5 5 5 6 6 6 7 7 7 7 7 7 7 8 8 9 9 9 8 9 8 9 10 10 10 10 9 9 9 9 10 10 10 10 10 10 10 9 9
4 3 4 4 3 3 4 3 3 3 3 3 2 2 3 3 3 3 4 4 4 4 3 3 2 2 2 2 2 2 2 2 2 2 2 2 4 4 7 8 7 8 8 7 7 7 7 7 6 6 7 7 7 8 8 8 8 8 8 9 9 9 9 9 10 10 9 10 10 10 10 11 10 10 10 10 10 10 10 11 11 11 11 11 11
4 4 4 4 3 3 3 3 3 3 2 2 2 3 2 2 3 3 4 4 4 3 2 3 2 2 2 3 2 2 2 1 2 2 2 2 3 4 5 9 9 9 9 8 8 8 8 8 8 8 8 8 8 8 8 8 9 9 8 9 9 10 10 10 10 10 10 10 10 11 11 12 11 11 11 11 11 11 11 11 11 11 12 11 11
4 3 3 3 3 3 2 2 2 2 2 2 3 2 2 3 3 3 4 3 3 2 2 2 2 2 2 3 2 2 2 2 2 2 3 3 3 4 5 5 8 10 9 9 9 9 9 9 9 9 9 9 10 10 9 9 10 9 9 9 10 10 10 11 11 11 11 11 11 12 12 12 12 12 13 12 12 12 12 12 12 12 12 12 12
2 3 2 3 3 3 2 1 2 2 1 2 3 3 3 3 3 2 3 1 3 2 1 1 2 2 2 3 2 3 2 2 3 3 3 3 3 3 4 5 6 7 9 10 10 10 10 10 10 10 10 10 10 10 10 10 10 10 10 10 10 11 11 11 11 12 11 11 12 12 13 13 13 13 13 12 13 13 12 12 12 12 12 12 13
3 2 2 2 2 2 2 2 2 2 1 1 2 2 2 2 3 3 3 2 3 2 1 3 2 1 2 2 3 3 2 3 3 3 3 4 3 3 3 3 3 4 6 7 9 10 11 11 11 11 10 10 10 10 11 11 11 11 11 11 12 12 12 12 12 12 12 12 12 13 13 13 13 13 13 13 13 12 12 12 12 13 13 13 13
2 2 2 2 2 1 0 1 0 0 2 1 1 1 1 3 3 4 4 4 3 1 1 2 2 3 3 2 3 3 3 3 3 3 4 3 3 4 3 3 3 3 5 6 7 9 10 10 11 10 10 10 10 11 11 11 11 11 11 11 11 12 12 12 12 12 12 12 12 12 13 13 14 14 13 13 12 12 12 12 12 12 13 13 14
2 2 2 1 2 1 0 1 1 1 2 2 2 3 2 3 2 3 4 4 4 3 2 2 2 2 1 2 2 3 3 3 4 3 3 3 4 3 3 3 3 3 4 4 5 6 8 10 10 10 10 10 10 10 11 11 12 12 12 12 12 12 12 12 12 11 12 13 13 13 14 14 14 14 13 13 13 12 12 12 11 11 13 14 14
3 3 3 2 1 1 0 1 1 2 3 3 2 2 2 3 3 2 2 2 2 3 3 2 0 2 1 2 2 2 3 3 3 3 3 4 4 4 3 4 4 5 4 4 4 4 5 8 8 9 10 10 10 10 10 11 11 12 12 12 12 12 12 12 12 11 11 13 14 14 14 14 14 14 14 14 14 13 12 12 13 13 14 14 14
4 4 3 2 2 1 1 1 1 2 2 3 2 0 1 3 4 2 2 2 3 3 4 2 1 1 1 2 2 2 3 3 3 4 4 5 4 5 4 3 3 4 4 4 4 3 3 4 6 8 8 8 9 9 9 10 10 11 11 12 12 12 12 11 11 11 12 13 13 13 13 14 14 13 14 14 14 13 12 12 12 13 14 14 14
4 4 4 3 2 2 2 2 2 2 2 2 3 2 3 3 4 4 3 1 1 1 2 2 2 1 1 2 3 4 4 4 4 4 4 5 5 5 3 4 4 4 4 4 3 3 4 3 3 3 3 6 8 8 9 9 10 10 11 11 11 12 12 11 10 11 12 12 12 13 13 13 13 13 13 14 14 12 12 14 14 14 14 13 13
4 4 4 3 3 3 3 2 2 2 1 2 3 3 4 4 4 3 5 4 1 2 2 3 2 3 2 1 3 3 4 4 4 5 4 5 5 4 5 3 3 4 4 4 3 4 4 3 3 3 3 4 7 8 9 9 9 10 10 11 11 12 12 12 12 12 12 12 12 11 11 11 12 13 14 14 12 12 12 12 13 13 13 12 11
3 4 4 3 3 3 3 3 2 2 1 1 0 2 2 2 1 1 3 5 3 3 3 3 5 4 3 4 4 2 3 4 5 4 5 5 4 4 4 4 4 4 4 3 4 4 4 3 3 3 3 3 4 6 8 9 9 9 10 10 11 11 12 12 12 12 11 12 12 11 11 11 11 12 11 11 11 12 12 11 11 13 12 11 11
4 4 4 4 4 3 3 3 3 2 2 1 1 2 3 3 3 3 2 2 3 3 4 2 4 2 3 5 4 6 2 1 2 4 4 4 4 4 4 5 5 5 3 3 4 4 4 4 3 3 3 3 4 4 4 5 6 8 9 10 11 12 12 12 12 12 11 11 11 11 11 10 10 10 11 11 11 11 11 10 10 11 11 12 12
4 4 4 4 4 4 4 3 3 2 2 1 3 3 3 3 3 3 4 1 1 1 4 3 2 1 1 2 3 6 5 4 2 3 3 3 3 4 4 5 7 4 3 3 3 4 4 3 4 4 4 4 4 4 4 5 6 10 10 10 11 12 12 12 12 12 12 11 11 10 10 10 10 9 10 10 10 10 10 9 9 9 9 11 11
3 3 3 3 4 4 3 3 3 2 2 1 1 2 2 2 2 2 1 3 4 3 3 3 1 2 4 2 2 1 4 5 5 5 2 3 3 4 3 5 5 4 2 4 4 3 3 3 4 4 4 4 4 4 4 4 7 10 10 11 10 10 10 11 11 12 11 11 10 9 9 8 8 8 9 9 10 10 10 9 9 9 10 10 10
3 4 4 4 3 3 3 3 2 2 2 1 1 0 1 1 1 1 2 1 3 2 2 1 3 1 2 2 2 3 1 4 3 4 4 3 1 3 4 5 5 4 4 4 3 3 3 4 4 4 4 4 4 4 4 4 4 5 7 9 10 10 10 9 10 11 11 10 9 8 7 6 7 7 8 9 9 9 9 9 8 8 9 8 8
3 3 4 4 4 3 3 3 2 2 2 2 1 1 1 0 1 2 1 1 0 2 3 2 2 1 1 1 2 1 3 3 2 4 5 1 4 3 3 4 4 4 3 4 3 3 2 4 4 5 4 4 4 4 4 4 4 4 4 6 10 10 11 10 9 10 10 10 8 6 5 5 5 6 7 8 9 8 8 8 8 8 8 7 8
3 3 3 3 3 3 3 3 2 2 2 2 1 1 1 1 1 1 2 1 1 2 3 3 3 2 2 2 1 1 2 2 3 1 5 6 3 3 4 3 3 3 3 2 3 3 3 3 4 5 5 4 3 4 3 4 5 5 9 11 11 11 12 11 10 9 9 10 8 7 4 5 5 5 6 6 8 8 7 7 7 7 7 7 6
3 3 3 3 3 3 3 3 2 2 2 2 2 1 1 1 1 2 1 2 2 1 1 2 3 3 2 2 2 1 1 1 2 1 1 3 7 5 2 5 5 2 3 3 3 4 4 4 4 5 4 4 3 4 3 4 4 4 5 8 9 11 11 11 10 9 9 9 9 7 4 5 5 6 5 6 6 7 7 6 7 7 7 7 5
3 3 3 3 3 3 3 3 3 3 3 2 2 2 2 2 2 1 1 1 1 1 1 1 1 2 4 3 2 2 2 2 1 1 1 2 4 4 7 5 3 3 4 2 3 3 4 4 4 5 4 4 3 4 3 3 4 4 5 9 10 11 11 11 10 8 9 8 8 8 6 4 5 6 6 5 4 6 6 6 6 6 7 7 5
4 3 3 3 3 3 3 4 4 3 3 3 2 2 3 3 2 2 1 1 1 1 1 1 1 1 1 1 3 2 3 2 2 3 2 2 1 5 4 5 6 6 4 6 5 3 3 4 4 4 3 3 3 4 3 3 3 4 6 10 11 11 12 11 10 9 9 8 8 7 7 6 5 6 6 5 5 5 5 6 6 6 6 7 5
3 3 4 4 3 3 4 4 3 3 3 3 3 3 2 2 1 2 2 2 1 1 0 1 1 1 0 0 1 1 1 0 3 2 1 2 3 3 3 1 2 5 5 6 5 4 3 2 3 3 2 3 3 3 3 3 3 6 10 11 11 11 11 10 10 10 10 9 9 7 7 6 6 7 7 6 5 4 5 5 5 5 5 6 4
3 4 4 4 4 4 4 3 3 3 4 3 3 3 2 2 2 2 2 2 2 1 1 1 1 0 1 1 1 1 1 2 2 2 2 2 1 4 4 4 1 2 4 6 3 4 4 3 2 2 3 3 2 2 2 3 4 8 7 8 9 9 9 9 9 9 10 10 11 10 10 9 8 8 8 7 6 5 5 5 5 5 5 5 5
4 4 4 5 5 5 4 4 4 4 4 3 3 3 3 3 3 3 3 3 3 2 1 1 0 1 2 1 1 1 2 2 1 2 1 1 2 2 1 1 2 4 3 2 3 5 2 4 4 3 3 3 1 2 2 2 3 5 6 6 9 9 9 9 9 9 10 10 11 11 11 11 10 9 9 8 7 6 6 6 6 6 5 5 6
6 6 5 4 4 5 5 5 5 4 4 4 4 3 3 4 3 3 4 3 2 3 2 1 1 2 1 2 1 1 2 1 2 2 2 2 1 1 2 2 1 3 3 2 2 3 3 3 3 2 2 1 2 2 2 2 2 6 8 6 8 9 9 10 10 10 10 11 11 12 12 12 11 10 9 8 8 7 8 7 7 6 6 6 6
6 5 5 5 5 4 5 5 4 4 4 4 3 3 3 3 3 3 3 2 3 2 2 2 2 2 1 1 2 2 2 1 1 2 2 2 2 2 2 4 3 1 3 2 3 0 2 3 2 2 2 2 2 3 3 3 4 6 7 4 4 8 9 9 9 10 10 11 12 12 12 12 12 10 10 9 9 9 9 9 8 7 7 7 6
5 4 5 5 5 5 4 4 4 4 4 4 4 3 4 4 3 3 3 2 3 3 2 2 2 2 2 1 1 3 2 1 1 2 2 2 3 2 3 3 2 5 3 4 4 3 1 3 2 1 2 4 4 3 4 5 3 6 6 3 4 5 7 9 9 9 10 11 11 12 12 12 12 12 11 10 10 10 10 9 9 8 7 7 7
4 4 5 5 4 4 4 4 4 4 4 4 4 4 4 3 3 3 3 2 2 3 2 3 2 2 2 1 1 2 2 1 1 1 2 2 2 2 2 2 4 1 3 3 3 2 3 1 2 3 2 4 5 3 5 4 4 5 4 3 4 4 6 9 10 10 10 10 11 11 11 12 12 12 11 10 10 10 10 10 9 8 8 8 8
5 4 5 5 5 5 4 5 4 4 4 3 3 3 3 3 3 3 3 2 3 2 2 2 2 2 2 1 1 2 1 1 2 1 1 2 2 2 2 2 2 1 2 2 4 3 3 2 2 3 4 6 4 5 3 4 5 5 4 4 4 4 9 10 10 10 10 10 11 11 11 11 11 11 11 10 10 10 10 10 10 10 9 9 8
5 5 5 5 4 4 4 4 3 4 4 4 3 3 3 3 3 3 2 2 3 3 2 2 2 2 2 2 1 2 1 2 2 1 1 1 2 3 2 2 2 3 3 3 2 3 2 3 3 3 2 6 4 4 5 4 4 4 4 4 5 8 10 7 10 10 10 11 11 11 11 11 11 11 11 10 9 9 9 9 10 11 10 10 9
5 5 5 5 5 5 4 4 4 3 4 3 3 3 3 3 3 3 3 3 3 4 3 2 2 2 2 3 3 3 2 2 3 2 2 1 1 1 2 2 2 2 3 4 4 6 3 4 5 6 4 4 5 6 5 5 5 5 3 4 5 7 5 5 8 10 10 11 11 11 11 11 11 11 10 10 9 8 8 9 10 11 11 11 10
5 5 5 5 5 5 4 4 4 4 5 4 4 3 4 4 4 4 3 3 4 3 3 4 2 2 2 3 4 3 2 3 3 3 2 2 1 0 1 2 2 2 3 3 3 6 4 2 2 4 3 3 5 2 4 5 6 6 4 4 5 4 4 4 5 9 11 11 11 12 12 12 11 11 11 10 9 8 8 9 10 11 12 11 10
6 6 6 5 4 5 4 5 5 5 5 5 4 4 4 4 4 2 3 4 4 4 3 4 4 3 2 3 4 4 2 3 3 3 2 2 1 2 2 2 2 2 3 3 3 2 6 3 4 3 4 2 4 3 4 6 7 5 6 6 4 3 4 4 4 6 10 11 11 12 12 13 13 12 11 11 10 9 8 9 10 11 12 12 11
5 6 6 6 6 6 5 5 5 5 5 5 4 5 5 5 5 4 4 4 5 5 5 5 5 3 3 3 5 4 2 3 3 3 2 2 1 2 3 2 3 2 3 4 3 3 5 5 3 3 3 2 3 6 4 4 5 4 6 6 5 5 3 4 4 5 8 10 11 11 11 12 12 12 11 11 10 9 8 8 9 11 12 12 11
5 5 6 6 6 6 6 6 6 6 6 5 5 5 6 6 6 6 6 5 5 5 6 6 5 4 4 4 5 4 3 3 4 3 2 2 2 3 3 3 3 4 3 3 5 4 3 4 4 4 3 4 5 4 4 4 5 5 4 5 4 5 6 5 4 5 6 10 11 11 11 11 11 11 11 10 10 9 9 8 9 10 11 11 11
5 5 5 5 5 6 6 7 7 7 7 7 7 6 6 6 7 6 6 6 6 6 6 6 5 5 5 5 6 4 4 4 4 4 4 4 3 3 4 4 3 3 2 3 4 4 4 6 5 3 2 3 4 6 3 4 4 4 4 4 5 6 6 6 4 5 8 10 10 11 10 10 10 10 10 9 9 9 9 8 8 9 10 11 10
6 5 6 5 6 6 7 7 7 7 7 7 8 8 7 7 6 6 6 6 6 6 6 6 6 5 5 6 6 5 5 5 5 5 4 6 4 4 5 5 4 3 4 3 3 3 4 6 5 5 4 5 5 5 4 2 4 6 8 7 5 4 4 5 5 5 4 5 5 6 7 8 8 10 10 10 10 10 9 9 9 10 10 11 11
6 6 6 6 6 6 7 6 7 7 7 7 7 8 7 7 7 7 7 7 6 6 6 6 6 6 6 6 6 6 6 6 6 6 6 6 4 6 6 5 4 3 4 5 3 3 4 5 4 5 5 4 3 7 3 0 3 4 5 6 7 5 3 4 7 6 5 7 7 8 8 9 9 8 9 10 10 10 11 10 10 10 11 11 11
6 7 6 7 6 6 7 7 7 6 6 6 6 7 7 7 7 7 7 7 7 6 6 6 6 6 6 6 6 6 7 7 7 6 6 6 5 6 5 4 4 4 4 4 4 4 4 4 5 6 4 5 5 4 4 4 6 4 4 4 6 8 8 4 5 7 6 5 7 6 5 6 7 7 9 9 10 10 11 10 11 10 11 12 11
5 6 6 6 6 6 6 7 7 6 6 6 6 6 7 7 6 7 7 7 7 7 6 6 6 7 6 6 7 7 7 10 11 10 8 6 5 6 6 4 4 4 4 4 4 4 4 4 6 3 5 6 6 6 7 7 6 8 4 1 4 7 5 5 7 5 5 6 5 5 5 4 6 6 5 5 6 7 9 10 9 11 12 12 12
6 5 6 6 6 7 7 6 6 5 6 5 8 12 11 7 7 6 6 6 7 6 6 6 6 6 7 7 7 11 12 13 12 13 13 12 11 9 8 6 6 5 5 5 5 4 4 5 6 5 6 7 6 6 6 7 7 5 6 4 5 6 5 6 6 5 3 3 5 8 5 2 4 6 5 6 7 5 5 4 6 7 9 12 12
5 4 4 6 6 5 6 6 6 6 5 6 12 13 14 14 8 7 7 7 6 6 6 6 7 6 6 6 6 8 10 11 11 13 12 13 13 13 14 13 10 7 6 7 6 6 6 6 6 5 6 8 8 6 6 7 6 6 6 6 6 5 5 6 9 7 1 3 2 5 9 1 2 6 7 7 7 5 5 6 11 12 13 13 13
5 4 5 6 6 5 5 5 6 6 6 9 12 12 13 13 11 8 6 5 5 6 6 7 7 6 7 6 6 6 6 8 8 8 9 11 12 13 13 14 14 14 12 10 9 7 6 7 7 8 6 8 10 6 6 5 8 6 6 5 5 6 7 6 6 8 3 1 5 6 10 5 2 5 7 7 7 6 7 10 12 13 13 13 13
4 5 6 5 6 5 5 6 6 6 6 9 12 12 13 13 14 11 6 6 6 6 7 7 7 7 6 6 6 5 6 10 9 7 7 8 10 12 12 12 13 14 14 14 14 11 8 8 7 9 8 8 8 9 6 5 4 6 8 7 6 5 5 6 7 7 8 0 4 6 8 7 3 7 7 8 7 6 7 9 13 13 13 13 13
5 5 5 5 5 5 5 6 5 4 5 5 8 10 11 13 13 10 7 7 7 7 7 7 7 7 8 7 6 6 5 5 6 6 6 7 7 6 6 6 7 9 11 13 14 16 13 9 9 10 11 7 10 10 10 6 6 9 8 9 8 8 8 9 7 7 6 0 5 7 9 7 3 5 7 8 5 5 5 9 12 12 12 13 13
5 5 5 5 5 5 4 4 4 4 3 2 3 6 8 11 11 9 6 6 6 7 7 7 7 7 6 5 6 7 7 6 6 6 6 6 6 5 6 7 7 7 7 7 7 6 6 8 9 10 11 9 10 11 10 7 8 9 8 9 7 7 8 6 6 6 7 4 6 3 7 6 0 5 8 8 7 6 5 8 11 12 12 12 11
4 5 3 3 3 3 3 3 3 4 3 4 5 5 6 8 8 5 5 6 6 5 6 5 5 5 5 5 5 6 6 7 8 8 7 5 5 6 7 7 7 7 7 8 11 10 9 7 7 8 9 10 11 11 9 8 7 7 4 4 3 5 6 6 8 6 8 2 6 5 5 8 1 6 9 8 6 7 6 6 8 10 10 9 7
7 4 2 0 1 1 1 1 1 2 2 3 2 4 7 7 1 1 2 3 3 4 5 4 4 4 4 4 5 5 5 5 6 8 7 3 4 6 7 8 7 8 10 9 9 12 13 14 15 15 16 16 16 16 15 15 11 7 3 5 7 6 5 8 8 7 8 3 4 7 5 9 4 4 8 7 6 7 7 6 5 3 3 4 6
7 8 5 3 3 2 2 1 1 2 2 1 1 1 2 2 2 1 0 1 2 2 2 2 2 2 3 6 5 3 3 3 5 8 6 3 3 4 5 7 9 9 10 8 6 7 9 12 13 15 15 15 16 16 16 15 16 7 6 8 9 3 7 7 9 8 7 5 6 6 3 8 6 3 5 5 5 5 5 5 5 4 2 4 6
6 4 5 4 3 2 4 3 2 2 2 2 2 1 0 1 1 1 1 1 2 2 1 2 1 1 0 0 2 2 3 4 7 5 6 3 3 4 5 6 8 9 9 7 7 8 7 7 6 6 7 9 9 8 9 15 15 10 9 10 6 6 8 8 8 7 8 8 4 9 5 4 3 2 2 7 9 5 3 3 4 3 2 2 2
Wind_Direction
79 67 58 55 50 51 55 61 63 47 51 53 55 29 21 12 3 342 338 319 309 288 283 269 223 198 197 184 177 168 181 185 212 235 245 254 263 274 260 244 251 257 258 267 274 268 263 268 273 280 284 288 293 298 303 308 307 309 311 313 316 319 321 324 325 329 330 325 325 325 324 325 322 319 316 313 312 306 302 297 299 298 299 295 292
94 70 70 58 58 53 51 40 56 34 35 35 20 32 6 343 336 330 312 306 290 277 274 264 243 223 205 200 185 193 178 196 216 232 245 254 258 266 273 260 251 255 261 265 269 281 284 281 276 272 281 285 290 293 301 306 310 312 310 311 311 315 317 320 322 323 323 323 319 319 321 320 319 316 313 309 307 307 305 303 299 300 298 299 299
101 99 81 73 60 54 41 36 33 33 26 18 357 4 331 283 283 278 281 270 263 268 256 244 240 231 219 213 198 182 195 194 222 238 247 247 252 255 268 276 268 255 261 268 273 278 283 288 294 297 298 301 302 305 305 306 305 307 310 309 308 310 314 316 317 316 317 316 313 312 314 315 314 314 311 309 305 304 304 303 302 303 301 300 296
112 103 100 85 64 64 47 36 8 5 19 345 336 322 297 290 274 265 265 254 271 267 223 185 225 230 201 223 200 196 200 202 228 235 249 247 248 252 256 267 288 290 274 271 276 277 279 284 287 292 295 299 302 303 304 305 306 308 308 305 306 307 309 310 311 311 313 313 311 309 309 311 313 314 312 309 308 307 305 301 298 296 297 298 298
114 112 98 96 86 78 62 36 354 357 357 328 319 322 303 312 305 285 266 295 317 0 133 180 211 227 212 213 199 213 202 202 225 236 239 245 243 247 252 259 267 288 290 285 281 282 283 285 289 291 294 298 300 300 302 303 303 304 305 304 304 306 307 308 309 310 310 308 307 307 310 312 312 310 309 306 304 303 301 299 297 296 295 296 296
139 121 112 106 97 91 84 25 4 347 333 352 326 320 326 331 344 353 11 26 1 342 350 272 246 189 214 207 191 211 200 216 223 234 240 246 244 245 246 250 259 272 283 289 288 288 288 289 290 293 294 296 298 300 301 301 300 301 303 305 306 307 306 306 306 307 307 305 305 307 308 307 307 306 305 304 303 302 299 298 296 295 295 296 296
142 146 131 122 127 122 116 75 267 97 39 16 11 304 19 11 355 11 352 12 2 16 340 278 255 238 225 206 206 198 207 223 227 238 240 249 249 246 245 248 251 259 273 278 281 281 286 289 290 291 293 295 297 299 301 302 302 302 303 304 304 303 303 304 304 305 305 303 302 303 302 302 303 302 302 300 298 296 295 294 293 292 292 292 292
142 139 144 126 141 176 100 174 145 79 53 43 43 32 7 13 32 44 9 1 356 349 347 326 249 278 286 240 220 210 214 229 233 240 248 251 251 254 245 250 251 253 260 265 271 276 276 281 285 287 289 290 291 293 297 300 302 302 301 300 301 303 304 303 301 298 298 299 299 299 299 299 298 298 298 296 296 293 292 293 292 290 290 290 289
150 143 146 149 146 142 95 163 131 83 60 46 50 23 14 5 11 50 52 307 353 337 1 17 333 233 192 221 238 234 236 241 246 247 249 240 248 252 253 244 244 251 253 256 261 268 274 277 282 287 289 289 289 288 289 293 296 299 300 298 296 296 297 298 298 295 292 294 296 296 296 296 296 296 296 295 294 292 289 287 288 289 288 288 288
159 150 142 157 151 152 143 130 109 88 81 57 62 236 56 42 9 358 349 339 11 3 341 343 27 136 180 195 213 208 235 240 245 250 234 247 241 246 247 252 250 244 248 251 260 261 267 272 280 289 292 297 296 293 291 291 292 293 294 295 294 291 290 289 287 287 287 288 288 288 288 290 291 291 292 292 291 290 287 285 285 288 290 290 288
157 153 148 149 120 121 110 121 108 91 64 49 24 15 37 32 32 344 345 281 292 312 305 287 347 58 158 199 175 209 212 213 222 230 234 243 253 254 242 244 246 244 244 245 249 254 261 266 276 279 283 288 292 294 293 291 292 290 288 288 287 286 286 284 281 280 281 281 282 282 284 284 285 287 289 290 289 287 286 288 289 290 294 293 292
157 151 151 143 138 135 124 105 101 90 66 21 9 28 36 20 7 356 349 352 85 55 19 11 16 34 8 172 220 225 215 209 211 216 223 232 239 247 256 252 242 253 247 246 244 253 255 260 262 268 271 281 288 292 294 293 291 289 287 285 280 279 279 279 280 281 280 280 282 281 281 281 283 287 292 291 288 286 286 288 293 297 298 298 296
147 150 159 153 141 138 129 111 108 102 106 110 273 21 65 82 356 334 6 6 335 7 24 51 42 357 347 344 325 240 241 202 210 210 217 224 221 237 240 253 251 248 249 245 249 254 254 255 257 261 268 274 287 287 289 290 288 286 286 285 284 281 278 277 277 279 279 281 282 284 285 284 285 286 286 287 288 290 292 295 297 304 307 307 306
145 151 150 149 149 147 149 150 137 116 121 132 28 37 31 39 16 355 46 16 326 340 338 4 30 66 344 332 333 323 324 297 265 260 238 228 221 227 228 242 252 249 246 238 249 247 253 251 252 262 265 265 272 283 291 289 285 278 281 282 285 285 282 280 280 280 280 280 282 284 285 285 286 287 289 291 294 296 299 301 302 306 307 310 311
152 149 149 163 161 157 165 150 136 141 117 25 33 18 28 38 38 35 335 21 306 333 2 22 102 183 174 22 359 356 334 355 317 285 273 252 241 242 238 242 249 245 235 242 242 250 253 254 255 254 258 263 269 270 274 279 283 292 292 289 287 287 288 287 285 284 283 283 288 291 292 292 291 292 296 298 300 303 305 307 308 309 308 312 312
162 154 142 158 163 169 150 150 135 126 121 121 27 21 23 30 26 5 29 357 5 334 16 3 121 55 5 1 281 51 351 336 332 306 305 276 238 245 247 252 259 258 216 244 248 252 255 255 257 252 253 255 260 266 270 275 289 295 295 294 293 291 290 290 291 291 289 289 292 294 296 296 295 296 298 303 305 309 313 316 317 317 317 316 314
163 158 155 163 164 155 161 144 130 122 116 123 140 29 77 37 91 5 17 83 359 352 311 0 12 75 137 29 359 21 199 268 329 284 349 3 311 278 256 258 263 251 235 250 264 254 272 269 267 265 258 257 258 264 270 279 293 294 297 295 294 295 295 291 292 293 292 291 292 295 295 295 296 297 299 305 310 315 320 322 324 321 319 315 316
165 162 158 151 167 169 152 147 138 137 138 138 125 100 62 10 226 225 226 260 165 47 346 321 21 62 116 107 155 180 290 295 28 327 321 242 303 290 269 276 272 263 238 258 264 274 246 273 270 273 271 261 262 265 268 274 277 283 283 290 291 295 299 296 290 291 292 292 289 294 286 290 292 296 301 308 313 318 325 326 323 320 317 314 316
174 165 158 160 154 159 160 160 146 132 161 132 162 238 280 278 264 206 238 171 149 34 353 314 344 49 22 18 309 323 183 13 343 282 351 323 334 338 321 322 314 282 262 257 261 254 244 239 262 268 271 268 267 267 268 273 277 279 283 287 295 299 301 300 297 290 291 295 295 301 287 287 289 291 296 300 314 321 322 324 320 314 315 316 320
177 169 160 160 154 156 152 146 155 164 193 193 209 202 250 271 265 230 180 200 178 169 326 14 67 311 17 24 2 61 37 14 165 29 254 314 322 322 246 339 341 333 301 288 260 253 259 246 250 253 258 266 259 268 268 274 275 279 280 284 286 293 296 299 299 295 292 295 297 301 295 299 292 289 288 293 310 318 316 311 313 315 317 318 334
188 175 179 175 177 159 154 159 175 190 209 203 198 182 216 257 272 227 204 131 123 110 102 128 98 38 349 356 354 30 33 43 75 125 106 341 295 333 328 337 350 2 348 301 281 266 256 257 243 255 257 274 283 280 279 281 282 277 277 287 291 293 295 298 300 291 293 295 296 299 295 283 285 283 285 289 293 308 310 306 309 313 314 318 324
192 181 185 195 183 159 163 180 193 185 203 202 191 197 216 229 239 218 171 134 135 157 165 184 183 186 122 157 8 334 34 23 24 26 63 82 312 313 327 344 349 321 326 348 334 311 282 275 274 273 289 289 279 277 300 293 287 286 291 295 295 296 298 300 302 299 297 296 295 289 292 289 269 272 277 282 291 297 304 303 298 305 309 315 307
185 190 189 187 190 184 182 194 188 191 199 192 209 222 220 228 211 181 171 161 170 183 308 81 113 107 167 232 298 72 83 100 300 334 333 306 346 312 312 275 276 319 316 329 318 318 318 291 279 288 303 297 298 309 291 283 277 286 290 294 299 301 302 306 305 301 299 297 294 287 288 278 275 275 274 276 281 280 291 291 289 300 305 308 284
207 193 196 191 186 195 200 189 191 187 206 201 207 215 216 197 181 188 175 151 161 161 146 19 53 144 173 213 231 215 183 203 235 206 190 245 192 291 305 320 331 228 290 316 294 330 335 331 303 291 276 263 252 270 278 269 271 278 290 297 298 300 303 303 302 301 298 299 299 299 297 291 283 276 272 275 273 277 272 271 271 282 289 293 263
207 204 211 194 185 187 191 189 195 200 197 193 210 201 202 193 191 184 179 200 198 185 190 260 221 322 312 233 230 221 256 233 205 215 198 137 174 314 290 123 290 312 315 359 328 319 284 342 352 330 310 317 281 225 235 259 274 297 298 299 300 301 300 297 296 296 295 295 298 300 300 298 291 282 275 271 267 264 268 260 259 266 273 263 261
193 207 201 197 198 199 191 194 198 195 190 198 200 199 194 201 190 194 209 208 169 179 185 203 213 231 222 301 311 301 275 238 215 182 175 160 151 222 293 305 223 295 298 318 340 339 335 359 356 334 332 288 312 330 321 307 309 328 329 316 306 302 299 298 297 296 295 294 295 297 300 301 301 295 286 274 263 249 256 255 252 257 264 268 264
201 204 188 193 203 200 198 191 194 197 192 193 189 191 195 194 195 206 214 186 192 182 201 192 260 291 263 227 299 299 292 272 203 228 179 200 191 180 144 356 341 325 332 311 315 180 280 294 317 22 12 348 348 340 328 332 336 324 328 318 304 301 295 294 292 292 292 292 293 296 299 300 301 297 296 285 270 259 254 246 244 241 243 253 254
204 183 199 187 193 201 198 204 193 195 199 203 200 193 194 195 201 193 218 188 187 201 211 194 230 241 257 228 266 298 299 291 252 240 210 199 194 155 142 129 47 339 332 339 352 309 272 328 300 250 345 8 349 329 337 338 329 321 319 312 297 300 301 299 299 298 296 295 297 299 300 300 299 299 299 291 275 262 253 247 242 238 234 234 241
196 193 192 195 194 190 195 203 199 200 201 209 205 205 197 203 201 202 222 196 177 213 190 210 230 235 251 258 260 281 299 290 268 246 234 183 188 190 181 180 154 77 327 324 300 298 291 358 328 297 308 350 342 337 333 312 313 312 306 306 303 292 308 310 310 307 305 304 303 302 301 300 299 298 299 296 283 267 256 250 245 247 242 233 231
192 193 187 191 193 200 186 202 204 197 206 208 209 208 194 211 214 214 213 169 201 203 216 210 226 218 244 229 222 272 272 306 312 294 193 205 180 189 192 191 156 184 186 278 292 224 269 284 198 284 322 328 332 323 313 296 297 295 295 299 309 308 317 311 307 306 307 307 306 303 301 299 298 297 299 296 288 277 265 255 245 240 238 234 227
190 192 186 189 190 200 192 198 196 207 202 211 203 202 197 215 210 224 210 187 208 241 231 212 237 223 241 266 242 267 262 301 304 303 286 183 192 169 176 152 178 152 164 174 273 278 177 286 283 219 272 306 313 306 302 282 288 298 296 305 306 315 314 311 311 310 309 308 306 305 303 299 296 295 296 293 285 276 264 251 247 247 244 239 234
190 190 191 192 190 195 201 198 200 206 208 210 201 199 196 220 217 214 210 195 222 241 259 234 262 256 266 282 279 282 298 305 305 313 293 277 188 200 163 163 168 184 153 174 210 270 214 236 268 288 274 272 296 297 289 291 294 298 303 305 302 304 304 304 309 307 307 309 311 310 305 299 295 293 292 290 286 275 264 253 248 249 250 248 240
179 182 194 200 195 200 205 203 205 204 208 209 193 193 196 217 227 230 222 204 224 242 246 271 250 245 256 266 276 273 273 289 290 299 301 294 298 211 184 161 180 166 174 177 234 270 280 230 259 274 293 298 294 235 289 289 298 303 310 285 292 293 296 299 304 306 307 312 315 315 312 306 299 294 292 291 287 277 263 252 248 248 251 251 245
176 187 190 190 189 193 199 205 204 208 211 211 194 185 203 210 231 223 238 235 239 244 237 254 253 232 231 256 268 273 247 256 274 277 280 290 276 274 232 224 227 207 200 194 226 243 286 292 278 250 274 206 260 252 265 295 294 306 304 304 290 268 288 299 301 302 305 306 308 307 307 308 306 300 295 293 288 281 268 257 251 251 254 254 249
185 188 188 185 192 191 201 208 202 201 206 209 195 192 201 205 214 221 221 219 229 242 241 243 243 234 238 237 260 261 252 267 262 269 270 271 254 257 269 232 245 236 201 209 195 257 275 283 249 286 262 253 236 282 274 256 275 284 291 290 299 304 287 287 294 294 297 297 298 298 298 300 300 297 293 289 285 279 273 261 255 256 257 258 254
189 195 191 190 188 193 199 203 198 200 191 196 193 198 203 203 209 219 211 207 214 226 233 240 241 227 231 241 251 252 254 254 265 267 257 244 253 261 266 257 227 245 221 198 216 225 250 277 274 249 280 299 273 253 266 270 273 275 256 276 280 281 292 293 283 283 293 294 293 292 294 298 295 290 287 285 281 277 274 269 265 263 262 262 258
200 188 194 189 192 191 199 202 201 198 199 194 194 200 207 207 210 217 218 212 216 220 225 229 239 230 229 233 247 241 232 248 258 256 252 253 240 237 251 249 242 244 230 213 221 215 231 256 278 266 262 267 263 282 263 287 290 268 246 256 286 292 292 288 284 276 277 278 280 287 294 297 295 288 284 279 276 276 275 277 277 275 274 272 269
195 195 196 188 190 198 205 210 209 209 206 199 201 204 206 207 211 218 220 221 225 224 226 227 228 227 233 232 240 237 236 232 248 251 242 246 239 240 247 247 245 253 256 243 214 219 228 251 253 290 274 271 291 279 270 243 279 305 310 299 275 260 268 301 298 296 301 304 315 312 306 304 299 290 280 272 268 270 272 274 275 274 271 268 264
195 198 198 197 203 200 208 206 213 215 213 208 207 207 206 204 208 212 220 225 228 227 230 233 235 232 233 235 234 231 236 235 242 243 246 248 241 246 234 243 237 244 261 266 244 236 236 257 265 243 273 266 243 284 295 164 266 252 275 302 303 298 288 279 302 303 306 305 287 268 275 282 285 284 284 278 270 266 268 270 274 273 273 268 264
210 210 204 201 203 197 205 205 212 213 216 216 215 213 209 203 202 210 214 222 226 230 234 231 233 238 235 236 235 231 230 234 235 242 232 252 250 263 254 233 234 231 252 264 266 252 259 261 260 282 273 291 296 264 282 301 298 282 202 234 281 295 302 303 278 291 301 298 299 302 293 288 281 268 267 266 260 260 263 272 270 270 271 269 265
211 216 214 207 205 204 209 211 209 205 207 215 209 209 210 212 207 214 213 215 221 227 232 234 229 233 239 242 242 238 232 238 233 238 236 224 231 257 265 227 237 234 251 253 254 262 262 263 278 265 279 289 281 293 301 297 279 276 293 224 272 279 285 292 286 268 256 277 279 277 280 286 292 284 279 282 269 264 263 255 271 271 266 265 263
215 211 210 210 204 206 208 210 209 205 214 216 221 217 213 210 205 217 216 217 220 225 232 238 241 232 238 239 245 248 247 247 246 245 245 244 240 238 254 250 237 231 235 248 250 243 244 265 263 271 281 278 277 275 273 267 281 288 285 267 269 286 302 279 272 258 216 243 284 296 284 258 268 280 271 275 279 258 270 258 255 264 269 265 264
219 214 203 201 201 196 198 200 202 209 216 221 223 221 220 222 219 213 214 222 215 219 227 234 250 247 242 239 244 251 253 255 255 254 251 247 246 244 247 249 244 231 239 242 249 236 244 250 260 255 254 272 276 266 257 275 280 273 276 283 278 289 289 304 303 305 215 212 249 293 301 265 236 282 290 284 281 273 263 260 263 263 261 267 270
223 211 217 219 220 210 200 199 203 210 215 223 222 223 225 227 226 229 224 226 215 208 214 220 230 236 243 239 236 233 229 233 239 253 255 254 251 249 246 247 250 246 237 236 253 260 235 247 256 255 249 261 270 269 266 264 275 278 265 261 263 269 281 280 281 285 270 43 303 293 289 298 208 269 281 277 278 269 268 267 265 259 260 263 266
215 210 217 219 221 217 214 210 214 216 225 224 223 223 223 224 223 220 231 225 224 224 217 220 224 231 234 238 248 236 240 240 241 245 247 259 258 255 256 258 257 252 248 241 236 236 254 253 253 263 248 253 261 261 240 242 232 272 287 281 272 265 254 266 272 283 293 156 288 285 283 285 290 280 275 273 277 277 275 258 253 256 259 260 263
261 217 211 215 216 214 211 211 221 223 225 247 237 234 231 228 226 212 221 221 225 230 227 221 223 225 230 236 241 255 243 238 238 241 244 252 265 272 268 256 255 260 254 244 239 237 235 238 246 254 257 217 245 257 263 254 261 267 275 277 282 283 276 268 282 280 279 136 280 297 288 279 262 279 278 282 272 270 258 267 264 260 258 259 261
228 238 211 207 213 212 211 208 214 221 221 194 242 242 236 229 228 209 222 225 225 232 233 230 233 232 237 231 236 247 262 257 245 235 243 249 256 267 273 270 266 267 272 269 249 232 216 217 227 235 250 251 249 256 263 259 245 252 251 263 277 277 281 288 279 254 267 215 235 218 269 289 179 278 274 283 292 283 272 277 265 261 259 258 262
248 247 239 204 204 210 215 217 223 227 219 203 232 248 233 229 202 192 206 215 224 235 240 243 240 239 236 234 235 249 254 265 270 269 272 297 289 282 279 281 283 275 268 259 255 252 245 232 217 228 239 246 251 254 255 253 256 254 263 274 268 263 279 287 281 289 278 215 188 206 260 278 228 279 285 289 293 285 282 277 279 264 258 258 257
302 278 274 231 150 180 184 176 254 303 322 24 1 337 349 359 25 325 219 229 234 235 245 245 248 251 248 237 241 264 277 283 319 346 356 339 278 279 283 287 288 291 284 281 261 252 252 251 249 249 251 254 256 257 259 259 253 267 309 285 265 258 262 272 273 275 269 249 194 207 245 280 278 259 282 281 280 283 282 278 279 267 231 245 254
312 315 320 353 357 9 2 318 265 277 290 347 243 111 43 52 350 30 83 233 258 266 292 305 290 287 289 301 299 284 285 292 1 3 6 329 283 269 269 273 278 278 278 285 300 283 260 253 252 248 248 252 254 258 261 260 258 231 201 236 250 232 256 254 268 267 280 279 242 173 230 255 281 251 274 275 274 239 257 256 261 271 219 244 237
309 319 332 352 339 2 11 357 351 357 2 33 85 147 123 170 194 344 25 333 303 303 320 311 316 264 250 9 345 1 353 8 16 12 22 11 303 295 285 282 278 276 275 296 294 296 299 297 280 273 261 239 235 226 237 244 247 225 209 228 243 227 247 256 262 282 288 267 226 161 205 253 251 242 247 303 297 268 221 267 282 287 274 268 280